This demonstration page uses our WeatherBlox Daily Observations layout. Learn more.

Hourly Observations for November 2, 2015

Temp ( °F °C ) Dew Point ( °F °C ) Humidity (%) Winds ( mph kmh ) Pressure ( in mb ) Visibility ( mi km ) Precip ( " mm )
12:15 am 00:15 Clear 56 13.6 40 4.7 55 55 WSW 7 11 29.8 1009 10 16.0934 0 0
12:35 am 00:35 Clear 57 13.7 40 4.7 55 55 WSW 6 9 29.8 1009 10 16.0934 0 0
12:55 am 00:55 Clear 55 12.6 41 4.8 59 59 WSW 6 9 29.8 1009 10 16.0934 0 0
1:15 am 01:15 Clear 55 12.6 41 4.8 59 59 SW 5 7 29.8 1009 10 16.0934 0 0
1:35 am 01:35 Clear 55 13 41 4.9 58 58 W 8 13 29.8 1009 10 16.0934 0 0
1:55 am 01:55 Clear 56 13.6 41 4.8 56 56 WSW 8 13 29.8 1009 10 16.0934 0 0
2:15 am 02:15 Clear 54 12.1 40 4.6 60 60 SW 3 6 29.8 1009 10 16.0934 0 0
2:35 am 02:35 Clear 55 12.9 41 4.8 58 58 SW 8 13 29.8 1009 10 16.0934 0 0
2:55 am 02:55 Clear 51 10.6 40 4.5 66 66 SSW 7 11 29.8 1009 10 16.0934 0 0
3:15 am 03:15 Clear 51 10.6 40 4.5 66 66 SSW 7 11 29.8 1009 10 16.0934 0 0
3:35 am 03:35 Clear 49 9.3 39 4.1 70 70 S 7 11 29.83 1010 10 16.0934 0 0
3:55 am 03:55 Clear 46 8 38 3.5 74 74 S 3 6 29.83 1010 10 16.0934 0 0
4:15 am 04:15 Clear 47 8.2 39 4 75 75 SSW 7 11 29.83 1010 10 16.0934 0 0
4:35 am 04:35 Clear 47 8.5 39 4.1 74 74 SSW 5 7 29.83 1010 10 16.0934 0 0
4:55 am 04:55 Clear 47 8.1 39 4 76 76 S 5 7 29.83 1010 10 16.0934 0 0
5:15 am 05:15 Clear 47 8.1 39 3.9 75 75 S 6 9 29.83 1010 10 16.0934 0 0
5:35 am 05:35 Clear 47 8.6 39 4 73 73 SSW 7 11 29.83 1010 10 16.0934 0 0
5:55 am 05:55 Clear 47 8.5 39 4 74 74 S 7 11 29.83 1010 10 16.0934 0 0
6:15 am 06:15 Clear 46 8 39 3.7 75 75 S 7 11 29.83 1010 10 16.0934 0 0
6:35 am 06:35 Clear 46 7.7 38 3.3 74 74 S 8 13 29.83 1010 10 16.0934 0 0
6:55 am 06:55 Clear 45 7.2 37 3 75 75 S 5 7 29.85 1011 10 16.0934 0 0
7:15 am 07:15 Sunny 44 6.6 37 2.6 76 76 SW 6 9 29.85 1011 10 16.0934 0 0
7:35 am 07:35 Sunny 45 7.2 37 3 75 75 SW 3 6 29.88 1012 10 16.0934 0 0
7:55 am 07:55 Sunny 47 8.5 38 3.5 71 71 SW 6 9 29.85 1011 10 16.0934 0 0
8:15 am 08:15 Sunny 48 8.9 38 3.6 70 70 WSW 5 7 29.85 1011 10 16.0934 0 0
8:35 am 08:35 Sunny 51 10.5 39 4 64 64 SW 5 7 29.85 1011 10 16.0934 0 0
8:55 am 08:55 Sunny 53 11.4 40 4.2 62 62 SW 6 9 29.88 1012 10 16.0934 0 0
9:15 am 09:15 Sunny 55 12.7 41 4.9 59 59 SW 5 7 29.85 1011 10 16.0934 0 0
9:35 am 09:35 Sunny 56 13.6 42 5.3 58 58 SW 5 7 29.85 1011 10 16.0934 0 0
9:55 am 09:55 Sunny 58 14.5 42 5.6 55 55 SSW 5 7 29.83 1010 10 16.0934 0 0
10:15 am 10:15 Sunny 60 15.6 42 5.8 52 52 SW 3 6 29.83 1010 10 16.0934 0 0
10:35 am 10:35 Sunny 62 16.9 43 6 49 49 SSW 3 6 29.83 1010 10 16.0934 0 0
10:55 am 10:55 Sunny 63 17.4 43 5.9 47 47 SSW 5 7 29.83 1010 10 16.0934 0 0
11:15 am 11:15 Sunny 65 18.4 42 5.6 43 43 S 6 9 29.83 1010 10 16.0934 0 0
11:35 am 11:35 Sunny 66 19.1 41 5.2 40 40 S 7 11 29.8 1009 10 16.0934 0 0
11:55 am 11:55 Sunny 69 20.5 40 4.5 35 35 S 3 6 29.77 1008 10 16.0934 0 0
12:15 pm 12:15 Sunny 71 21.9 39 3.7 30 30 S 6 9 29.74 1007 10 16.0934 0 0
12:35 pm 12:35 Sunny 73 22.7 39 3.7 29 29 SSW 5 7 29.74 1007 10 16.0934 0 0
12:55 pm 12:55 Sunny 74 23.2 38 3.2 27 27 S 9 15 29.71 1006 10 16.0934 0 0
1:15 pm 13:15 Sunny 74 23.5 38 3.1 26 26 S 10 17 29.71 1006 10 16.0934 0 0
1:35 pm 13:35 Sunny 76 24.2 37 2.5 24 24 S 9 15 29.71 1006 10 16.0934 0 0
1:55 pm 13:55 Sunny 76 24.5 36 2.1 23 23 S 13 20 29.68 1005 10 16.0934 0 0
2:15 pm 14:15 Sunny 76 24.5 36 2.4 24 24 S 13 20 29.65 1004 10 16.0934 0 0
2:35 pm 14:35 Sunny 76 24.6 37 2.7 24 24 SSE 12 19 29.65 1004 10 16.0934 0 0
2:55 pm 14:55 Sunny 76 24.5 36 2.3 23 23 S 15 24 29.65 1004 10 16.0934 0 0
3:15 pm 15:15 Sunny 75 24 37 2.7 25 25 S 15 24 29.68 1005 10 16.0934 0 0
3:35 pm 15:35 Sunny 74 23.5 38 3.1 26 26 S 15 24 29.68 1005 10 16.0934 0 0
3:55 pm 15:55 Sunny 74 23.4 38 3.3 27 27 S 12 19 29.68 1005 10 16.0934 0 0
4:15 pm 16:15 Sunny 74 23.2 38 3.5 28 28 SSE 10 17 29.68 1005 10 16.0934 0 0
4:35 pm 16:35 Sunny 73 23 38 3.5 28 28 SSE 9 15 29.68 1005 10 16.0934 0 0
4:55 pm 16:55 Sunny 72 22 38 3.6 30 30 SSE 10 17 29.68 1005 10 16.0934 0 0
5:15 pm 17:15 Sunny 69 20.7 38 3.6 33 33 SSE 9 15 29.68 1005 10 16.0934 0 0
5:35 pm 17:35 Clear 66 19.1 38 3.5 36 36 SSE 9 15 29.71 1006 10 16.0934 0 0
5:55 pm 17:55 Clear 62 16.9 39 4 43 43 SSE 8 13 29.77 1008 10 16.0934 0 0
6:15 pm 18:15 Clear 62 16.4 39 4 44 44 SSE 9 15 29.77 1008 10 16.0934 0 0
6:35 pm 18:35 Clear 60 15.3 39 4.1 47 47 SSE 8 13 29.77 1008 10 16.0934 0 0
6:55 pm 18:55 Clear 63 17 39 3.7 41 41 SSE 13 20 29.77 1008 10 16.0934 0 0
7:15 pm 19:15 Clear 60 15.6 39 3.9 46 46 SE 12 19 29.77 1008 10 16.0934 0 0
7:35 pm 19:35 Clear 58 14.6 39 4 49 49 SSE 8 13 29.77 1008 10 16.0934 0 0
7:55 pm 19:55 Clear 58 14.4 39 4.1 50 50 SSE 10 17 29.8 1009 10 16.0934 0 0
8:15 pm 20:15 Clear 60 15.5 40 4.5 48 48 SSE 12 19 29.77 1008 10 16.0934 0 0
8:35 pm 20:35 Clear 60 15.4 40 4.5 48 48 S 12 19 29.77 1008 10 16.0934 0 0
8:55 pm 20:55 Clear 60 15.3 40 4.5 49 49 S 15 24 29.77 1008 10 16.0934 0 0
9:15 pm 21:15 Clear 59 14.9 40 4.7 51 51 S 10 17 29.77 1008 10 16.0934 0 0
9:35 pm 21:35 Clear 57 14.1 41 5.2 55 55 S 13 20 29.8 1009 10 16.0934 0 0
9:55 pm 21:55 Clear 58 14.5 41 5.1 54 54 S 15 24 29.77 1008 10 16.0934 0 0
10:15 pm 22:15 Clear 55 12.9 41 5 59 59 SSE 10 17 29.8 1009 10 16.0934 0 0
10:35 pm 22:35 Clear 55 13 42 5.3 60 60 SSE 9 15 29.8 1009 10 16.0934 0 0
10:55 pm 22:55 Clear 55 12.9 42 5.8 62 62 SSE 10 17 29.8 1009 10 16.0934 0 0
11:15 pm 23:15 Clear 56 13.3 44 6.4 63 63 S 13 20 29.8 1009 10 16.0934 0 0
11:35 pm 23:35 Clear 55 13 44 6.7 66 66 SSE 14 22 29.8 1009 10 16.0934 0 0
11:55 pm 23:55 Clear 55 12.5 44 6.8 68 68 SSE 14 22 29.8 1009 10 16.0934 0 0

Powered by AerisWeather